Year,Month,Day,Hour,Minute,Value (Times are PST for temperature in C)
2014,08,16,00,00,16.90
2014,08,16,00,01,16.90
2014,08,16,00,02,16.90
2014,08,16,00,03,16.90
2014,08,16,00,04,16.90
2014,08,16,00,05,16.90
2014,08,16,00,06,16.80
2014,08,16,00,07,16.80
2014,08,16,00,08,16.80
2014,08,16,00,09,16.80
2014,08,16,00,10,16.80
2014,08,16,00,11,16.80
2014,08,16,00,12,16.80
2014,08,16,00,13,16.80
2014,08,16,00,14,16.80
2014,08,16,00,15,16.70
2014,08,16,00,16,16.70
2014,08,16,00,17,16.70
2014,08,16,00,18,16.70
2014,08,16,00,19,16.70
2014,08,16,00,20,16.70
2014,08,16,00,21,16.70
2014,08,16,00,22,16.70
2014,08,16,00,23,16.60
2014,08,16,00,24,16.60
2014,08,16,00,25,16.60
2014,08,16,00,26,16.60
2014,08,16,00,27,16.60
2014,08,16,00,28,16.60
2014,08,16,00,29,16.60
2014,08,16,00,30,16.50
2014,08,16,00,31,16.50
2014,08,16,00,32,16.50
2014,08,16,00,33,16.50
2014,08,16,00,34,16.50
2014,08,16,00,35,16.40
2014,08,16,00,36,16.40
2014,08,16,00,37,16.40
2014,08,16,00,38,16.40
2014,08,16,00,39,16.40
2014,08,16,00,40,16.40
2014,08,16,00,41,16.40
2014,08,16,00,42,16.40
2014,08,16,00,43,16.40
2014,08,16,00,44,16.40
2014,08,16,00,45,16.40
2014,08,16,00,46,16.40
2014,08,16,00,47,16.40
2014,08,16,00,48,16.30
2014,08,16,00,49,16.30
2014,08,16,00,50,16.30
2014,08,16,00,51,16.30
2014,08,16,00,52,16.30
2014,08,16,00,53,16.30
2014,08,16,00,54,16.30
2014,08,16,00,55,16.30
2014,08,16,00,56,16.30
2014,08,16,00,57,16.30
2014,08,16,00,58,16.30
2014,08,16,00,59,16.30
2014,08,16,01,00,16.30
2014,08,16,01,01,16.30
2014,08,16,01,02,16.30
2014,08,16,01,03,16.30
2014,08,16,01,04,16.30
2014,08,16,01,05,16.30
2014,08,16,01,06,16.30
2014,08,16,01,07,16.30
2014,08,16,01,08,16.30
2014,08,16,01,09,16.30
2014,08,16,01,10,16.20
2014,08,16,01,11,16.20
2014,08,16,01,12,16.20
2014,08,16,01,13,16.20
2014,08,16,01,14,16.20
2014,08,16,01,15,16.20
2014,08,16,01,16,16.20
2014,08,16,01,17,16.20
2014,08,16,01,18,16.20
2014,08,16,01,19,16.20
2014,08,16,01,20,16.20
2014,08,16,01,21,16.20
2014,08,16,01,22,16.20
2014,08,16,01,23,16.20
2014,08,16,01,24,16.20
2014,08,16,01,25,16.20
2014,08,16,01,26,16.20
2014,08,16,01,27,16.20
2014,08,16,01,28,16.20
2014,08,16,01,29,16.20
2014,08,16,01,30,16.20
2014,08,16,01,31,16.20
2014,08,16,01,32,16.20
2014,08,16,01,33,16.20
2014,08,16,01,34,16.20
2014,08,16,01,35,16.20
2014,08,16,01,36,16.20
2014,08,16,01,37,16.20
2014,08,16,01,38,16.20
2014,08,16,01,39,16.20
2014,08,16,01,40,16.20
2014,08,16,01,41,16.20
2014,08,16,01,42,16.20
2014,08,16,01,43,16.20
2014,08,16,01,44,16.20
2014,08,16,01,45,16.20
2014,08,16,01,46,16.10
2014,08,16,01,47,16.10
2014,08,16,01,48,16.10
2014,08,16,01,49,16.10
2014,08,16,01,50,16.10
2014,08,16,01,51,16.10
2014,08,16,01,52,16.10
2014,08,16,01,53,16.10
2014,08,16,01,54,16.10
2014,08,16,01,55,16.10
2014,08,16,01,56,16.10
2014,08,16,01,57,16.10
2014,08,16,01,58,16.10
2014,08,16,01,59,16.10
2014,08,16,02,00,16.10
2014,08,16,02,01,16.10
2014,08,16,02,02,16.10
2014,08,16,02,03,16.10
2014,08,16,02,04,16.10
2014,08,16,02,05,16.10
2014,08,16,02,06,16.10
2014,08,16,02,07,16.10
2014,08,16,02,08,16.10
2014,08,16,02,09,16.10
2014,08,16,02,10,16.10
2014,08,16,02,11,16.10
2014,08,16,02,12,16.10
2014,08,16,02,13,16.10
2014,08,16,02,14,16.10
2014,08,16,02,15,16.10
2014,08,16,02,16,16.10
2014,08,16,02,17,16.10
2014,08,16,02,18,16.10
2014,08,16,02,19,16.00
2014,08,16,02,20,16.10
2014,08,16,02,21,16.00
2014,08,16,02,22,16.00
2014,08,16,02,23,16.00
2014,08,16,02,24,16.00
2014,08,16,02,25,16.00
2014,08,16,02,26,16.00
2014,08,16,02,27,16.00
2014,08,16,02,28,16.00
2014,08,16,02,29,16.00
2014,08,16,02,30,16.00
2014,08,16,02,31,16.00
2014,08,16,02,32,16.00
2014,08,16,02,33,16.00
2014,08,16,02,34,16.00
2014,08,16,02,35,16.00
2014,08,16,02,36,16.00
2014,08,16,02,37,16.00
2014,08,16,02,38,16.00
2014,08,16,02,39,16.00
2014,08,16,02,40,16.00
2014,08,16,02,41,16.00
2014,08,16,02,42,16.00
2014,08,16,02,43,16.00
2014,08,16,02,44,16.00
2014,08,16,02,45,16.00
2014,08,16,02,46,16.00
2014,08,16,02,47,16.00
2014,08,16,02,48,16.00
2014,08,16,02,49,16.00
2014,08,16,02,50,16.00
2014,08,16,02,51,16.00
2014,08,16,02,52,16.00
2014,08,16,02,53,16.00
2014,08,16,02,54,16.00
2014,08,16,02,55,16.00
2014,08,16,02,56,16.00
2014,08,16,02,57,16.00
2014,08,16,02,58,16.00
2014,08,16,02,59,16.00
2014,08,16,03,00,16.00
2014,08,16,03,01,16.00
2014,08,16,03,02,16.00
2014,08,16,03,03,16.00
2014,08,16,03,04,16.00
2014,08,16,03,05,16.00
2014,08,16,03,06,16.00
2014,08,16,03,07,16.00
2014,08,16,03,08,16.10
2014,08,16,03,09,16.10
2014,08,16,03,10,16.10
2014,08,16,03,11,16.10
2014,08,16,03,12,16.10
2014,08,16,03,13,16.10
2014,08,16,03,14,16.10
2014,08,16,03,15,16.10
2014,08,16,03,16,16.10
2014,08,16,03,17,16.00
2014,08,16,03,18,16.00
2014,08,16,03,19,16.00
2014,08,16,03,20,16.00
2014,08,16,03,21,16.00
2014,08,16,03,22,16.00
2014,08,16,03,23,16.00
2014,08,16,03,24,16.00
2014,08,16,03,25,16.00
2014,08,16,03,26,16.00
2014,08,16,03,27,16.00
2014,08,16,03,28,16.00
2014,08,16,03,29,16.00
2014,08,16,03,30,16.00
2014,08,16,03,31,16.00
2014,08,16,03,32,16.00
2014,08,16,03,33,16.00
2014,08,16,03,34,16.00
2014,08,16,03,35,16.00
2014,08,16,03,36,16.00
2014,08,16,03,37,16.00
2014,08,16,03,38,16.00
2014,08,16,03,39,16.00
2014,08,16,03,40,16.00
2014,08,16,03,41,16.00
2014,08,16,03,42,16.00
2014,08,16,03,43,16.00
2014,08,16,03,44,16.00
2014,08,16,03,45,16.00
2014,08,16,03,46,16.00
2014,08,16,03,47,16.00
2014,08,16,03,48,16.00
2014,08,16,03,49,16.00
2014,08,16,03,50,16.00
2014,08,16,03,51,16.00
2014,08,16,03,52,16.00
2014,08,16,03,53,16.00
2014,08,16,03,54,16.00
2014,08,16,03,55,16.00
2014,08,16,03,56,16.00
2014,08,16,03,57,16.00
2014,08,16,03,58,16.00
2014,08,16,03,59,16.00
2014,08,16,04,00,16.00
2014,08,16,04,01,16.00
2014,08,16,04,02,16.00
2014,08,16,04,03,16.00
2014,08,16,04,04,16.00
2014,08,16,04,05,16.00
2014,08,16,04,06,16.00
2014,08,16,04,07,16.00
2014,08,16,04,08,16.00
2014,08,16,04,09,16.00
2014,08,16,04,10,16.00
2014,08,16,04,11,16.00
2014,08,16,04,12,16.00
2014,08,16,04,13,16.00
2014,08,16,04,14,16.00
2014,08,16,04,15,16.00
2014,08,16,04,16,16.00
2014,08,16,04,17,16.00
2014,08,16,04,18,16.00
2014,08,16,04,19,16.10
2014,08,16,04,20,16.00
2014,08,16,04,21,16.10
2014,08,16,04,22,16.10
2014,08,16,04,23,16.00
2014,08,16,04,24,16.10
2014,08,16,04,25,16.00
2014,08,16,04,26,16.10
2014,08,16,04,27,16.00
2014,08,16,04,28,16.00
2014,08,16,04,29,16.00
2014,08,16,04,30,16.00
2014,08,16,04,31,16.00
2014,08,16,04,32,16.00
2014,08,16,04,33,16.00
2014,08,16,04,34,16.00
2014,08,16,04,35,16.00
2014,08,16,04,36,16.00
2014,08,16,04,37,16.00
2014,08,16,04,38,16.00
2014,08,16,04,39,16.00
2014,08,16,04,40,16.00
2014,08,16,04,41,16.00
2014,08,16,04,42,16.00
2014,08,16,04,43,16.00
2014,08,16,04,44,16.00
2014,08,16,04,45,16.00
2014,08,16,04,46,16.00
2014,08,16,04,47,16.00
2014,08,16,04,48,16.00
2014,08,16,04,49,16.00
2014,08,16,04,50,16.00
2014,08,16,04,51,16.00
2014,08,16,04,52,16.00
2014,08,16,04,53,16.00
2014,08,16,04,54,16.00
2014,08,16,04,55,16.00
2014,08,16,04,56,16.00
2014,08,16,04,57,16.00
2014,08,16,04,58,16.00
2014,08,16,04,59,16.00
2014,08,16,05,00,16.00
2014,08,16,05,01,16.00
2014,08,16,05,02,16.00
2014,08,16,05,03,16.00
2014,08,16,05,04,16.00
2014,08,16,05,05,16.00
2014,08,16,05,06,16.00
2014,08,16,05,07,16.00
2014,08,16,05,08,16.00
2014,08,16,05,09,16.00
2014,08,16,05,10,16.00
2014,08,16,05,11,16.00
2014,08,16,05,12,16.00
2014,08,16,05,13,16.00
2014,08,16,05,14,16.00
2014,08,16,05,15,16.00
2014,08,16,05,16,16.00
2014,08,16,05,17,16.00
2014,08,16,05,18,16.00
2014,08,16,05,19,16.00
2014,08,16,05,20,16.00
2014,08,16,05,21,16.00
2014,08,16,05,22,16.00
2014,08,16,05,23,16.00
2014,08,16,05,24,15.90
2014,08,16,05,25,15.90
2014,08,16,05,26,15.90
2014,08,16,05,27,15.90
2014,08,16,05,28,15.90
2014,08,16,05,29,15.90
2014,08,16,05,30,15.90
2014,08,16,05,31,15.90
2014,08,16,05,32,15.90
2014,08,16,05,33,15.90
2014,08,16,05,34,15.90
2014,08,16,05,35,15.90
2014,08,16,05,36,15.90
2014,08,16,05,37,15.90
2014,08,16,05,38,15.80
2014,08,16,05,39,15.80
2014,08,16,05,40,15.80
2014,08,16,05,41,15.80
2014,08,16,05,42,15.80
2014,08,16,05,43,15.80
2014,08,16,05,44,15.80
2014,08,16,05,45,15.80
2014,08,16,05,46,15.70
2014,08,16,05,47,15.70
2014,08,16,05,48,15.70
2014,08,16,05,49,15.70
2014,08,16,05,50,15.70
2014,08,16,05,51,15.60
2014,08,16,05,52,15.60
2014,08,16,05,53,15.60
2014,08,16,05,54,15.60
2014,08,16,05,55,15.60
2014,08,16,05,56,15.60
2014,08,16,05,57,15.50
2014,08,16,05,58,15.50
2014,08,16,05,59,15.50
2014,08,16,06,00,15.40
2014,08,16,06,01,15.40
2014,08,16,06,02,15.40
2014,08,16,06,03,15.40
2014,08,16,06,04,15.40
2014,08,16,06,05,15.30
2014,08,16,06,06,15.30
2014,08,16,06,07,15.30
2014,08,16,06,08,15.30
2014,08,16,06,09,15.30
2014,08,16,06,10,15.20
2014,08,16,06,11,15.20
2014,08,16,06,12,15.20
2014,08,16,06,13,15.20
2014,08,16,06,14,15.20
2014,08,16,06,15,15.10
2014,08,16,06,16,15.10
2014,08,16,06,17,15.10
2014,08,16,06,18,15.00
2014,08,16,06,19,15.00
2014,08,16,06,20,15.00
2014,08,16,06,21,15.00
2014,08,16,06,22,14.90
2014,08,16,06,23,14.90
2014,08,16,06,24,14.90
2014,08,16,06,25,14.90
2014,08,16,06,26,14.90
2014,08,16,06,27,14.80
2014,08,16,06,28,14.80
2014,08,16,06,29,14.80
2014,08,16,06,30,14.80
2014,08,16,06,31,14.80
2014,08,16,06,32,14.70
2014,08,16,06,33,14.70
2014,08,16,06,34,14.70
2014,08,16,06,35,14.70
2014,08,16,06,36,14.70
2014,08,16,06,37,14.70
2014,08,16,06,38,14.60
2014,08,16,06,39,14.60
2014,08,16,06,40,14.60
2014,08,16,06,41,14.60
2014,08,16,06,42,14.60
2014,08,16,06,43,14.60
2014,08,16,06,44,14.60
2014,08,16,06,45,14.50
2014,08,16,06,46,14.50
2014,08,16,06,47,14.50
2014,08,16,06,48,14.50
2014,08,16,06,49,14.50
2014,08,16,06,50,14.40
2014,08,16,06,51,14.40
2014,08,16,06,52,14.40
2014,08,16,06,53,14.40
2014,08,16,06,54,14.40
2014,08,16,06,55,14.40
2014,08,16,06,56,14.30
2014,08,16,06,57,14.30
2014,08,16,06,58,14.30
2014,08,16,06,59,14.30
2014,08,16,07,00,14.30
2014,08,16,07,01,14.30
2014,08,16,07,02,14.30
2014,08,16,07,03,14.30
2014,08,16,07,04,14.30
2014,08,16,07,05,14.30
2014,08,16,07,06,14.30
2014,08,16,07,07,14.30
2014,08,16,07,08,14.30
2014,08,16,07,09,14.30
2014,08,16,07,10,14.30
2014,08,16,07,11,14.30
2014,08,16,07,12,14.30
2014,08,16,07,13,14.30
2014,08,16,07,14,14.30
2014,08,16,07,15,14.30
2014,08,16,07,16,14.30
2014,08,16,07,17,14.20
2014,08,16,07,18,14.20
2014,08,16,07,19,14.30
2014,08,16,07,20,14.20
2014,08,16,07,21,14.20
2014,08,16,07,22,14.30
2014,08,16,07,23,14.30
2014,08,16,07,24,14.30
2014,08,16,07,25,14.30
2014,08,16,07,26,14.30
2014,08,16,07,27,14.30
2014,08,16,07,28,14.30
2014,08,16,07,29,14.30
2014,08,16,07,30,14.30
2014,08,16,07,31,14.30
2014,08,16,07,32,14.30
2014,08,16,07,33,14.30
2014,08,16,07,34,14.30
2014,08,16,07,35,14.30
2014,08,16,07,36,14.30
2014,08,16,07,37,14.30
2014,08,16,07,38,14.30
2014,08,16,07,39,14.30
2014,08,16,07,40,14.40
2014,08,16,07,41,14.40
2014,08,16,07,42,14.40
2014,08,16,07,43,14.50
2014,08,16,07,44,14.50
2014,08,16,07,45,14.60
2014,08,16,07,46,14.60
2014,08,16,07,47,14.70
2014,08,16,07,48,14.70
2014,08,16,07,49,14.80
2014,08,16,07,50,14.90
2014,08,16,07,51,14.90
2014,08,16,07,52,15.00
2014,08,16,07,53,15.10
2014,08,16,07,54,15.10
2014,08,16,07,55,15.20
2014,08,16,07,56,15.20
2014,08,16,07,57,15.30
2014,08,16,07,58,15.30
2014,08,16,07,59,15.40
2014,08,16,08,00,15.50
2014,08,16,08,01,15.60
2014,08,16,08,02,15.70
2014,08,16,08,03,15.80
2014,08,16,08,04,15.90
2014,08,16,08,05,16.00
2014,08,16,08,06,16.10
2014,08,16,08,07,16.30
2014,08,16,08,08,16.40
2014,08,16,08,09,16.40
2014,08,16,08,10,16.50
2014,08,16,08,11,16.50
2014,08,16,08,12,16.60
2014,08,16,08,13,16.60
2014,08,16,08,14,16.70
2014,08,16,08,15,16.70
2014,08,16,08,16,16.70
2014,08,16,08,17,16.80
2014,08,16,08,18,16.80
2014,08,16,08,19,16.80
2014,08,16,08,20,16.90
2014,08,16,08,21,16.90
2014,08,16,08,22,16.90
2014,08,16,08,23,17.00
2014,08,16,08,24,17.00
2014,08,16,08,25,17.10
2014,08,16,08,26,17.10
2014,08,16,08,27,17.10
2014,08,16,08,28,17.20
2014,08,16,08,29,17.20
2014,08,16,08,30,17.20
2014,08,16,08,31,17.20
2014,08,16,08,32,17.30
2014,08,16,08,33,17.30
2014,08,16,08,34,17.40
2014,08,16,08,35,17.50
2014,08,16,08,36,17.50
2014,08,16,08,37,17.60
2014,08,16,08,38,17.70
2014,08,16,08,39,17.80
2014,08,16,08,40,17.90
2014,08,16,08,41,18.00
2014,08,16,08,42,18.10
2014,08,16,08,43,18.20
2014,08,16,08,44,18.20
2014,08,16,08,45,18.30
2014,08,16,08,46,18.40
2014,08,16,08,47,18.50
2014,08,16,08,48,18.60
2014,08,16,08,49,18.70
2014,08,16,08,50,18.70
2014,08,16,08,51,18.80
2014,08,16,08,52,18.90
2014,08,16,08,53,18.90
2014,08,16,08,54,19.00
2014,08,16,08,55,19.10
2014,08,16,08,56,19.10
2014,08,16,08,57,19.20
2014,08,16,08,58,19.20
2014,08,16,08,59,19.30
2014,08,16,09,00,19.30
2014,08,16,09,01,19.40
2014,08,16,09,02,19.40
2014,08,16,09,03,19.40
2014,08,16,09,04,19.40
2014,08,16,09,05,19.40
2014,08,16,09,06,19.50
2014,08,16,09,07,19.50
2014,08,16,09,08,19.50
2014,08,16,09,09,19.50
2014,08,16,09,10,19.50
2014,08,16,09,11,19.60
2014,08,16,09,12,19.60
2014,08,16,09,13,19.70
2014,08,16,09,14,19.80
2014,08,16,09,15,19.90
2014,08,16,09,16,19.90
2014,08,16,09,17,19.90
2014,08,16,09,18,19.90
2014,08,16,09,19,19.90
2014,08,16,09,20,19.90
2014,08,16,09,21,19.90
2014,08,16,09,22,19.90
2014,08,16,09,23,19.90
2014,08,16,09,24,20.00
2014,08,16,09,25,20.00
2014,08,16,09,26,20.00
2014,08,16,09,27,20.10
2014,08,16,09,28,20.10
2014,08,16,09,29,20.10
2014,08,16,09,30,20.10
2014,08,16,09,31,20.10
2014,08,16,09,32,20.10
2014,08,16,09,33,20.10
2014,08,16,09,34,20.20
2014,08,16,09,35,20.20
2014,08,16,09,36,20.20
2014,08,16,09,37,20.20
2014,08,16,09,38,20.30
2014,08,16,09,39,20.30
2014,08,16,09,40,20.40
2014,08,16,09,41,20.40
2014,08,16,09,42,20.40
2014,08,16,09,43,20.30
2014,08,16,09,44,20.30
2014,08,16,09,45,20.40
2014,08,16,09,46,20.40
2014,08,16,09,47,20.50
2014,08,16,09,48,20.50
2014,08,16,09,49,20.60
2014,08,16,09,50,20.60
2014,08,16,09,51,20.50
2014,08,16,09,52,20.50
2014,08,16,09,53,20.40
2014,08,16,09,54,20.40
2014,08,16,09,55,20.50
2014,08,16,09,56,20.60
2014,08,16,09,57,20.70
2014,08,16,09,58,20.80
2014,08,16,09,59,20.90
2014,08,16,10,00,21.00
2014,08,16,10,01,21.20
2014,08,16,10,02,21.30
2014,08,16,10,03,21.30
2014,08,16,10,04,21.30
2014,08,16,10,05,21.30
2014,08,16,10,06,21.40
2014,08,16,10,07,21.30
2014,08,16,10,08,21.30
2014,08,16,10,09,21.30
2014,08,16,10,10,21.20
2014,08,16,10,11,21.10
2014,08,16,10,12,21.00
2014,08,16,10,13,21.00
2014,08,16,10,14,20.90
2014,08,16,10,15,20.90
2014,08,16,10,16,21.00
2014,08,16,10,17,21.00
2014,08,16,10,18,21.10
2014,08,16,10,19,21.10
2014,08,16,10,20,21.10
2014,08,16,10,21,21.10
2014,08,16,10,22,21.10
2014,08,16,10,23,21.10
2014,08,16,10,24,21.10
2014,08,16,10,25,21.10
2014,08,16,10,26,21.10
2014,08,16,10,27,21.10
2014,08,16,10,28,21.10
2014,08,16,10,29,21.10
2014,08,16,10,30,21.10
2014,08,16,10,31,21.20
2014,08,16,10,32,21.20
2014,08,16,10,33,21.30
2014,08,16,10,34,21.40
2014,08,16,10,35,21.50
2014,08,16,10,36,21.60
2014,08,16,10,37,21.70
2014,08,16,10,38,21.70
2014,08,16,10,39,21.70
2014,08,16,10,40,21.70
2014,08,16,10,41,21.70
2014,08,16,10,42,21.80
2014,08,16,10,43,21.90
2014,08,16,10,44,21.90
2014,08,16,10,45,21.90
2014,08,16,10,46,21.80
2014,08,16,10,47,21.80
2014,08,16,10,48,21.80
2014,08,16,10,49,21.80
2014,08,16,10,50,21.80
2014,08,16,10,51,21.80
2014,08,16,10,52,21.80
2014,08,16,10,53,21.80
2014,08,16,10,54,21.80
2014,08,16,10,55,21.90
2014,08,16,10,56,22.00
2014,08,16,10,57,22.10
2014,08,16,10,58,22.10
2014,08,16,10,59,22.20
2014,08,16,11,00,22.20
2014,08,16,11,01,22.30
2014,08,16,11,02,22.40
2014,08,16,11,03,22.40
2014,08,16,11,04,22.40
2014,08,16,11,05,22.50
2014,08,16,11,06,22.60
2014,08,16,11,07,22.70
2014,08,16,11,08,22.70
2014,08,16,11,09,22.80
2014,08,16,11,10,22.90
2014,08,16,11,11,23.00
2014,08,16,11,12,23.10
2014,08,16,11,13,23.20
2014,08,16,11,14,23.30
2014,08,16,11,15,23.30
2014,08,16,11,16,23.30
2014,08,16,11,17,23.40
2014,08,16,11,18,23.40
2014,08,16,11,19,23.40
2014,08,16,11,20,23.40
2014,08,16,11,21,23.30
2014,08,16,11,22,23.30
2014,08,16,11,23,23.30
2014,08,16,11,24,23.40
2014,08,16,11,25,23.40
2014,08,16,11,26,23.40
2014,08,16,11,27,23.50
2014,08,16,11,28,23.50
2014,08,16,11,29,23.60
2014,08,16,11,30,23.60
2014,08,16,11,31,23.70
2014,08,16,11,32,23.80
2014,08,16,11,33,23.90
2014,08,16,11,34,24.00
2014,08,16,11,35,24.20
2014,08,16,11,36,24.20
2014,08,16,11,37,24.30
2014,08,16,11,38,24.30
2014,08,16,11,39,24.20
2014,08,16,11,40,24.20
2014,08,16,11,41,24.20
2014,08,16,11,42,24.10
2014,08,16,11,43,24.20
2014,08,16,11,44,24.20
2014,08,16,11,45,24.20
2014,08,16,11,46,24.30
2014,08,16,11,47,24.40
2014,08,16,11,48,24.40
2014,08,16,11,49,24.40
2014,08,16,11,50,24.40
2014,08,16,11,51,24.40
2014,08,16,11,52,24.40
2014,08,16,11,53,24.30
2014,08,16,11,54,24.30
2014,08,16,11,55,24.20
2014,08,16,11,56,24.10
2014,08,16,11,57,24.00
2014,08,16,11,58,24.00
2014,08,16,11,59,24.00
2014,08,16,12,00,24.00
2014,08,16,12,01,24.00
2014,08,16,12,02,24.10
2014,08,16,12,03,24.20
2014,08,16,12,04,24.30
2014,08,16,12,05,24.40
2014,08,16,12,06,24.50
2014,08,16,12,07,24.60
2014,08,16,12,08,24.70
2014,08,16,12,09,24.70
2014,08,16,12,10,24.70
2014,08,16,12,11,24.70
2014,08,16,12,12,24.70
2014,08,16,12,13,24.70
2014,08,16,12,14,24.70
2014,08,16,12,15,24.80
2014,08,16,12,16,24.80
2014,08,16,12,17,24.80
2014,08,16,12,18,24.80
2014,08,16,12,19,24.80
2014,08,16,12,20,24.90
2014,08,16,12,21,24.90
2014,08,16,12,22,25.00
2014,08,16,12,23,25.10
2014,08,16,12,24,25.20
2014,08,16,12,25,25.30
2014,08,16,12,26,25.40
2014,08,16,12,27,25.40
2014,08,16,12,28,25.50
2014,08,16,12,29,25.60
2014,08,16,12,30,25.60
2014,08,16,12,31,25.60
2014,08,16,12,32,25.60
2014,08,16,12,33,25.50
2014,08,16,12,34,25.40
2014,08,16,12,35,25.40
2014,08,16,12,36,25.40
2014,08,16,12,37,25.50
2014,08,16,12,38,25.50
2014,08,16,12,39,25.60
2014,08,16,12,40,25.60
2014,08,16,12,41,25.60
2014,08,16,12,42,25.60
2014,08,16,12,43,25.70
2014,08,16,12,44,25.70
2014,08,16,12,45,25.80
2014,08,16,12,46,25.90
2014,08,16,12,47,26.00
2014,08,16,12,48,26.20
2014,08,16,12,49,26.20
2014,08,16,12,50,26.30
2014,08,16,12,51,26.30
2014,08,16,12,52,26.30
2014,08,16,12,53,26.30
2014,08,16,12,54,26.40
2014,08,16,12,55,26.40
2014,08,16,12,56,26.40
2014,08,16,12,57,26.40
2014,08,16,12,58,26.40
2014,08,16,12,59,26.50
2014,08,16,13,00,26.50
2014,08,16,13,01,26.60
2014,08,16,13,02,26.80
2014,08,16,13,03,26.90
2014,08,16,13,04,27.00
2014,08,16,13,05,27.10
2014,08,16,13,06,27.20
2014,08,16,13,07,27.30
2014,08,16,13,08,27.40
2014,08,16,13,09,27.40
2014,08,16,13,10,27.50
2014,08,16,13,11,27.60
2014,08,16,13,12,27.70
2014,08,16,13,13,27.80
2014,08,16,13,14,27.80
2014,08,16,13,15,27.80
2014,08,16,13,16,27.80
2014,08,16,13,17,27.70
2014,08,16,13,18,27.70
2014,08,16,13,19,27.70
2014,08,16,13,20,27.60
2014,08,16,13,21,27.60
2014,08,16,13,22,27.60
2014,08,16,13,23,27.60
2014,08,16,13,24,27.60
2014,08,16,13,25,27.50
2014,08,16,13,26,27.50
2014,08,16,13,27,27.40
2014,08,16,13,28,27.40
2014,08,16,13,29,27.30
2014,08,16,13,30,27.30
2014,08,16,13,31,27.30
2014,08,16,13,32,27.20
2014,08,16,13,33,27.10
2014,08,16,13,34,27.00
2014,08,16,13,35,27.00
2014,08,16,13,36,26.90
2014,08,16,13,37,26.90
2014,08,16,13,38,26.90
2014,08,16,13,39,27.00
2014,08,16,13,40,27.00
2014,08,16,13,41,27.00
2014,08,16,13,42,27.00
2014,08,16,13,43,26.90
2014,08,16,13,44,26.90
2014,08,16,13,45,26.90
2014,08,16,13,46,26.80
2014,08,16,13,47,26.80
2014,08,16,13,48,26.80
2014,08,16,13,49,26.70
2014,08,16,13,50,26.80
2014,08,16,13,51,26.90
2014,08,16,13,52,26.90
2014,08,16,13,53,26.90
2014,08,16,13,54,26.90
2014,08,16,13,55,26.90
2014,08,16,13,56,26.90
2014,08,16,13,57,26.90
2014,08,16,13,58,26.90
2014,08,16,13,59,26.90
2014,08,16,14,00,26.90
2014,08,16,14,01,27.00
2014,08,16,14,02,27.10
2014,08,16,14,03,27.10
2014,08,16,14,04,27.10
2014,08,16,14,05,27.10
2014,08,16,14,06,27.10
2014,08,16,14,07,27.20
2014,08,16,14,08,27.20
2014,08,16,14,09,27.20
2014,08,16,14,10,27.20
2014,08,16,14,11,27.20
2014,08,16,14,12,27.20
2014,08,16,14,13,27.20
2014,08,16,14,14,27.20
2014,08,16,14,15,27.30
2014,08,16,14,16,27.30
2014,08,16,14,17,27.40
2014,08,16,14,18,27.40
2014,08,16,14,19,27.50
2014,08,16,14,20,27.50
2014,08,16,14,21,27.60
2014,08,16,14,22,27.70
2014,08,16,14,23,27.80
2014,08,16,14,24,27.70
2014,08,16,14,25,27.70
2014,08,16,14,26,27.70
2014,08,16,14,27,27.70
2014,08,16,14,28,27.70
2014,08,16,14,29,27.70
2014,08,16,14,30,27.70
2014,08,16,14,31,27.80
2014,08,16,14,32,27.80
2014,08,16,14,33,27.80
2014,08,16,14,34,27.80
2014,08,16,14,35,27.80
2014,08,16,14,36,27.70
2014,08,16,14,37,27.60
2014,08,16,14,38,27.70
2014,08,16,14,39,27.70
2014,08,16,14,40,27.70
2014,08,16,14,41,27.70
2014,08,16,14,42,27.80
2014,08,16,14,43,27.80
2014,08,16,14,44,27.90
2014,08,16,14,45,28.00
2014,08,16,14,46,28.10
2014,08,16,14,47,28.10
2014,08,16,14,48,28.00
2014,08,16,14,49,27.90
2014,08,16,14,50,27.90
2014,08,16,14,51,27.90
2014,08,16,14,52,27.90
2014,08,16,14,53,27.90
2014,08,16,14,54,27.90
2014,08,16,14,55,27.90
2014,08,16,14,56,27.80
2014,08,16,14,57,27.80
2014,08,16,14,58,27.80
2014,08,16,14,59,27.80
2014,08,16,15,00,27.80
2014,08,16,15,01,27.80
2014,08,16,15,02,27.80
2014,08,16,15,03,27.80
2014,08,16,15,04,27.70
2014,08,16,15,05,27.70
2014,08,16,15,06,27.70
2014,08,16,15,07,27.70
2014,08,16,15,08,27.80
2014,08,16,15,09,27.80
2014,08,16,15,10,27.90
2014,08,16,15,11,28.00
2014,08,16,15,12,28.10
2014,08,16,15,13,28.10
2014,08,16,15,14,28.20
2014,08,16,15,15,28.20
2014,08,16,15,16,28.20
2014,08,16,15,17,28.20
2014,08,16,15,18,28.10
2014,08,16,15,19,28.00
2014,08,16,15,20,28.00
2014,08,16,15,21,28.00
2014,08,16,15,22,28.00
2014,08,16,15,23,28.10
2014,08,16,15,24,28.10
2014,08,16,15,25,28.00
2014,08,16,15,26,28.00
2014,08,16,15,27,27.90
2014,08,16,15,28,28.00
2014,08,16,15,29,28.00
2014,08,16,15,30,28.00
2014,08,16,15,31,28.00
2014,08,16,15,32,27.90
2014,08,16,15,33,27.90
2014,08,16,15,34,27.80
2014,08,16,15,35,27.80
2014,08,16,15,36,27.80
2014,08,16,15,37,27.90
2014,08,16,15,38,27.90
2014,08,16,15,39,27.90
2014,08,16,15,40,28.00
2014,08,16,15,41,27.90
2014,08,16,15,42,27.90
2014,08,16,15,43,27.80
2014,08,16,15,44,27.80
2014,08,16,15,45,27.80
2014,08,16,15,46,27.70
2014,08,16,15,47,27.70
2014,08,16,15,48,27.60
2014,08,16,15,49,27.60
2014,08,16,15,50,27.60
2014,08,16,15,51,27.50
2014,08,16,15,52,27.40
2014,08,16,15,53,27.40
2014,08,16,15,54,27.40
2014,08,16,15,55,27.30
2014,08,16,15,56,27.30
2014,08,16,15,57,27.30
2014,08,16,15,58,27.30
2014,08,16,15,59,27.30
2014,08,16,16,00,27.20
2014,08,16,16,01,27.20
2014,08,16,16,02,27.20
2014,08,16,16,03,27.20
2014,08,16,16,04,27.20
2014,08,16,16,05,27.20
2014,08,16,16,06,27.20
2014,08,16,16,07,27.20
2014,08,16,16,08,27.20
2014,08,16,16,09,27.20
2014,08,16,16,10,27.20
2014,08,16,16,11,27.20
2014,08,16,16,12,27.20
2014,08,16,16,13,27.10
2014,08,16,16,14,27.10
2014,08,16,16,15,27.10
2014,08,16,16,16,27.10
2014,08,16,16,17,27.10
2014,08,16,16,18,27.10
2014,08,16,16,19,27.20
2014,08,16,16,20,27.20
2014,08,16,16,21,27.10
2014,08,16,16,22,27.10
2014,08,16,16,23,27.00
2014,08,16,16,24,27.00
2014,08,16,16,25,26.90
2014,08,16,16,26,26.90
2014,08,16,16,27,26.90
2014,08,16,16,28,26.80
2014,08,16,16,29,26.80
2014,08,16,16,30,26.80
2014,08,16,16,31,26.70
2014,08,16,16,32,26.70
2014,08,16,16,33,26.70
2014,08,16,16,34,26.70
2014,08,16,16,35,26.70
2014,08,16,16,36,26.70
2014,08,16,16,37,26.70
2014,08,16,16,38,26.70
2014,08,16,16,39,26.70
2014,08,16,16,40,26.70
2014,08,16,16,41,26.70
2014,08,16,16,42,26.80
2014,08,16,16,43,26.80
2014,08,16,16,44,26.80
2014,08,16,16,45,26.80
2014,08,16,16,46,26.80
2014,08,16,16,47,26.80
2014,08,16,16,48,26.80
2014,08,16,16,49,26.80
2014,08,16,16,50,26.80
2014,08,16,16,51,26.80
2014,08,16,16,52,26.80
2014,08,16,16,53,26.80
2014,08,16,16,54,26.80
2014,08,16,16,55,26.80
2014,08,16,16,56,26.80
2014,08,16,16,57,26.80
2014,08,16,16,58,26.80
2014,08,16,16,59,26.80
2014,08,16,17,00,26.80
2014,08,16,17,01,26.80
2014,08,16,17,02,26.80
2014,08,16,17,03,26.80
2014,08,16,17,04,26.80
2014,08,16,17,05,26.70
2014,08,16,17,06,26.80
2014,08,16,17,07,26.80
2014,08,16,17,08,26.80
2014,08,16,17,09,26.80
2014,08,16,17,10,26.80
2014,08,16,17,11,26.80
2014,08,16,17,12,26.80
2014,08,16,17,13,26.80
2014,08,16,17,14,26.80
2014,08,16,17,15,26.80
2014,08,16,17,16,26.70
2014,08,16,17,17,26.70
2014,08,16,17,18,26.70
2014,08,16,17,19,26.70